Regional Weather Roundup
Issued by NWS Sterling, VA

Home | Current Version | Previous Version | Graphics & Text | Print | Product List | Glossary On
Versions: 1 2 3 4 5 6 7 8 9 10 11 12 13 14 15 16 17 18 19 20 21 22 23 24 25 26 27 28 29 30 31 32 33 34 35 36 37 38 39 40 41 42 43 44 45 46 47 48 49 50
000
ASUS41 KLWX 200510
RWRLWX

REGIONAL WEATHER ROUNDUP
NATIONAL WEATHER SERVICE BALTIMORE MD/WASHINGTON DC
100 AM EDT MON APR 20 2015

Note: "FAIR" indicates few or no clouds below 12,000 feet
with no significant weather and/or obstructions to visibility.
 TC=TEMPERATURE CELSIUS

 * =Non NWS site. Station does not report precipitation (e.g. rain,
    snow, etc.), thunder, or fog.

DCZ001-MDZ009-015-VAZ040>042-051-053>054-200600-
WASHINGTON METRO

CITY           SKY/WX    TMP DP  RH WIND       PRES   REMARKS
WASHINGTON NAT LGT RAIN  57  52  83 E14G29    29.82F
DULLES         RAIN      53  51  93 E15G26    29.78F FOG
ANDREWS AFB    LGT RAIN  54  54 100 E14G21    29.83F
FT BELVOIR     LGT RAIN  55  54  94 VRB6      29.79F FOG
QUANTICO       RAIN      58  55  90 E15       29.78F FOG
COLLEGE PARK*  CLOUDY    54  52  94 E8        29.84F
LEESBURG*      HVY RAIN  52  52 100 E14       29.81F
MANASSAS*      CLOUDY    55  55 100 E16       29.78F
GAITHERSBURG*  CLOUDY    52  46  82 E13G23    29.86F

$$

MDZ006>007-011-014-200600-
BALTIMORE METRO

CITY           SKY/WX    TMP DP  RH WIND       PRES   REMARKS
BWI AIRPORT    LGT RAIN  52  50  93 E22G29    29.86F
MD SCIENCE CTR   N/A     53  50  89 MISG      29.89F
MARTIN STATE   LGT RAIN  54  52  94 NE15G24   29.91F
ANNAPOLIS      LGT RAIN  54  50  86 E20G28    29.86F
FORT MEADE*    CLOUDY    52  50  93 E15G21    29.87F

$$

MDZ012-015-019>023-200600-
MARYLAND EASTERN SHORE

CITY           SKY/WX    TMP DP  RH WIND       PRES   REMARKS
OCEAN CITY     CLOUDY    53  51  93 E13G26    29.91F
SALISBURY      LGT RAIN  59  56  89 E16       29.89F
BAY BRIDGE AP* DRIZZLE   54  50  87 E23G31    29.87F
CAMBRIDGE*     CLOUDY    57  54  88 E17       29.87F
EASTON*        LGT RAIN  55  54  97 SE10G21   29.92F

$$

MDZ017>025-200600-
SOUTHERN MARYLAND

CITY           SKY/WX    TMP DP  RH WIND       PRES   REMARKS
PATUXENT RIVER HVY RAIN  57 N/A N/A E24G30    29.82F
ST INIGOES     RAIN      60  58  92 E16       29.82F FOG
LEONARDTOWN*   CLOUDY    55  54  94 E12G23    29.84F

$$

MDZ003>005-200600-
NORTH CENTRAL MARYLAND

CITY           SKY/WX    TMP DP  RH WIND       PRES   REMARKS
FREDERICK*     RAIN      54  46  76 E7G16     29.85F
HAGERSTOWN APT RAIN      51  47  86 E10       29.81F FOG
WESTMINSTER*   RAIN      50  48  93 E17G28    29.84F

$$

MDZ501>502-200600-
WESTERN MARYLAND

CITY           SKY/WX    TMP DP  RH WIND       PRES   REMARKS
OAKLAND*       CLOUDY    41 N/A N/A SE21G26   29.74S HAZE
CUMBERLAND*    CLOUDY    48  46  93 N3        29.84F

$$

VAZ025>031-200600-
SHENANDOAH VALLEY

CITY           SKY/WX    TMP DP  RH WIND       PRES   REMARKS
WINCHESTER*    RAIN      52  46  82 E6        29.77F
FRONT ROYAL*   CLOUDY    48  48 100 CALM      29.76F
LURAY*         RAIN      54  54 100 N7        29.74F
NEW MARKET*    CLOUDY    49  48  97 N10G18    29.73
STAUNTON*      RAIN      55  53  93 N8        29.73F
WAYNESBORO*    NOT AVBL

$$

WVZ021-048>050-054>055-200600-
EASTERN WEST VIRGINIA PANHANDLE

CITY           SKY/WX    TMP DP  RH WIND       PRES   REMARKS
MARTINSBURG    NOT AVBL
PETERSBURG*    NOT AVBL

$$

VAZ036>039-050-200600-
CENTRAL FOOTHILLS

CITY           SKY/WX    TMP DP  RH WIND       PRES   REMARKS
CHARLOTTESVILL RAIN      53  52  96 N8        29.73F FOG
CULPEPER*      HVY RAIN  57  55  94 E3        29.74F
ORANGE*        HVY RAIN  59  57  94 E8        29.74F
GORDONSVILLE*  CLOUDY    57  57  97 S7G18     29.72F
WARRENTON*     RAIN      56  56  99 E13G20    29.74F

$$

VAZ055>057-200600-
NORTH AND CENTRAL PIEDMONT

CITY           SKY/WX    TMP DP  RH WIND       PRES   REMARKS
FREDERICKSBRG* HVY RAIN  59  59 100 E7        29.76F
STAFFORD*      HVY RAIN  57  32  38 E10G20    29.81F

$$

NCZ024-NYZ072-PAZ021-071-VAZ022-071-200600-
OTHER REGIONAL OBSERVATIONS

CITY           SKY/WX    TMP DP  RH WIND       PRES   REMARKS
NEW YORK CITY  CLOUDY    48  38  68 E7        30.16F
PHILADELPHIA   CLOUDY    50  44  80 E15G24    30.01F
PITTSBURGH     CLOUDY    53  50  89 SE16      29.62S
ROANOKE        CLOUDY    57  57 100 CALM      29.72F
RICHMOND       LGT RAIN  67  63  87 SE15      29.75F FOG
RALEIGH        CLOUDY    67  64  90 S9G18     29.76S

$$

ANZ530>537-200600-
MARINE OBSERVATIONS

STATION/POSITION TIME  TEMP    WIND        PRES
                       AIR SEA DIR/SP/G
                 (UTC) (F)     (DEG/KT/KT) (MB)
THOMAS PT LIGHT  0500   54 54  100/ 26/ 29 1010.9F
BALT KEY BRIDGE  0400   54      90/ 19/ 23 1013.2F
COVE POINT       0400   56     120/ 24/ 33 1011.1F
LEWISETTA        0400   60 61              1010.7F
SOLOMONS ISLAND  0400      56                N/A
PINEY POINT      0400          120/ 23/ 25   N/A

$$



USA.gov is the U.S. government's official web portal to all federal, state and local government web resources and services.